Location: De Greiden
(52.9496°N, 5.9137°E)
Time: 02:11:53
(UTC+00:00)

BREEZE-M DEB (TANK) - Pass Details

Date: 24 January 2021
Orbit: 310 x 13786 km, 49.6° (Epoch: 26 February)

Event Time Altitude Azimuth Distance (km) Brightness Sun altitude
Rises 18:32:06 0° 270° (W) 2,108 7.4 -21.6°
Reaches altitude 10° 18:33:56 10° 258° (WSW) 1,204 5.7 -21.8°
Enters shadow 18:35:14 25° 227° (SW) 706 3.9 -22.0°
